Location: Tucson
(32.2217°N, 110.9265°W)
Time: 08:05:09
(UTC-07:00)

Courier 1B - Visible Passes

Search period start: 25 October 2021 00:00
Search period end: 04 November 2021 00:00
Orbit: 962 x 1209 km, 28.3° (Epoch: 24 October)

Date Brightness Start Highest point End Pass type
(mag) Time Alt. Az. Time Alt. Az. Time Alt. Az.
25 Oct 10.5 05:37:25 10° SSE 05:39:14 11° SSE 05:41:04 10° SE visible
27 Oct 10.1 05:39:55 10° SSW 05:45:14 20° SSE 05:50:33 10° ESE visible
28 Oct 10.1 04:47:37 10° S 04:51:28 14° SSE 04:55:23 10° ESE visible
29 Oct 9.5 05:44:40 10° SSW 05:51:15 31° SSE 05:57:55 10° E visible
30 Oct 9.7 04:51:35 10° SSW 04:57:27 24° SSE 05:03:27 10° ESE visible
31 Oct 9.8 04:00:42 14° S 04:03:43 18° SSE 04:08:39 10° ESE visible
31 Oct 8.9 05:50:09 10° SW 05:57:20 43° SSE 06:04:40 10° E visible
01 Nov 10.1 03:10:48 13° SE 03:10:48 13° SE 03:13:05 10° ESE visible
01 Nov 9.1 04:57:44 14° SW 05:03:30 36° SSE 05:10:28 10° E visible
02 Nov 9.2 04:07:45 25° S 04:09:43 29° SSE 04:16:07 10° E visible
02 Nov 8.5 05:56:06 10° WSW 06:03:31 56° SSE 06:11:11 10° E visible
03 Nov 9.7 03:17:43 20° SE 03:17:43 20° SE 03:21:32 10° ESE visible
03 Nov 8.5 05:04:37 20° SW 05:09:38 48° SSE 05:17:05 10° E visible
